Location: Kirchberg
(47.4114°N, 9.0398°E)
Time: 23:26:26
(UTC+00:00)

OBJECT-B - Pass Details

Date: 03 March 2021
Orbit: 414 x 427 km, 97.0° (Epoch: 11 April)

Event Time Altitude Azimuth Distance (km) Brightness Sun altitude
Exits shadow 19:38:15 31° 312° (NW) 769 2.6 -25.2°
Drops below altitude 10° 19:40:16 10° 336° (NNW) 1,514 4.1 -25.5°
Sets 19:42:20 0° 343° (NNW) 2,382 5.1 -25.9°
